Regional Weather Roundup
Issued by NWS

Home | Current Version | Previous Version | Graphics & Text | Print | Product List | Glossary On
Versions: 1 2 3 4 5 6 7 8 9 10 11 12 13 14 15 16 17 18 19 20 21 22 23 24 25 26 27 28 29 30 31 32 33 34 35 36 37 38 39 40 41 42 43 44 45 46 47 48 49 50
000
ASUS43 KMKX 230511
RWRWI

WISCONSIN REGIONAL WEATHER ROUNDUP
NATIONAL WEATHER SERVICE MILWAUKEE/SULLIVAN WI
1200 AM CDT SUN JUL 23 2017

NOTE: "FAIR" INDICATES FEW OR NO CLOUDS BELOW 12,000 FEET WITH NO
SIGNIFICANT WEATHER AND/OR OBSTRUCTIONS TO VISIBILITY.

WIZ001-002-006>008-014>016-023>028-230600-
NORTHWEST WISCONSIN

CITY           SKY/WX    TMP DP  RH WIND       PRES   REMARKS
SUPERIOR ARPT  NOT AVBL
ASHLAND        CLOUDY    60  59  96 CALM      29.84R
HAYWARD        FOG       60  58  92 CALM      29.84S VSB 3/4
SIREN          CLEAR     64  57  79 CALM      29.84S
CUMBERLAND     CLEAR     64  55  72 CALM      29.85S
RICE LAKE      CLEAR     69  56  63 W3        29.86R
CHETEK         CLEAR     71  59  64 CALM      29.84S
LADYSMITH      PTCLDY    67  64  90 CALM      29.86S
EAU CLAIRE     PTCLDY    70  69  97 CALM      29.83R
MENOMONIE      CLEAR     71  62  73 W3        29.84S
NEW RICHMOND   CLEAR     65  63  93 CALM      29.85S
OSCEOLA        CLEAR     65  62  87 CALM      29.87S
$$

WIZ003>005-009-010-017-018-230600-
NORTH CENTRAL WISCONSIN

CITY           SKY/WX    TMP DP  RH WIND       PRES   REMARKS
MANITOWISH WTR CLOUDY    64  64 100 CALM      29.84S
ARBOR VITAE    TSTM      64  62  91 N3G41     29.85R VSB 1
WOODRUFF       TSTM      64  62  91 N3G41     29.85R VSB 1
RHINELANDER    CLOUDY    62  61  96 CALM      29.83S FOG
EAGLE RIVER    MOCLDY    64  64  99 CALM      29.82S
LAND O LAKES   PTCLDY    64  64 100 CALM      29.85R
PHILLIPS       PTCLDY    63  63 100 CALM      29.84S
TOMAHAWK         N/A     61  60  97 CALM      29.84R
MEDFORD        PTCLDY    66  64  93 W5        29.84R
MERRILL        CLEAR     67  67  99 SW3       29.82R
$$

WIZ029-030-035-036-043>047-230600-
CENTRAL WISCONSIN

CITY           SKY/WX    TMP DP  RH WIND       PRES   REMARKS
WAUSAU         CLEAR     72  67  84 NW6       29.80R
MOSINEE        CLEAR     68  68 100 W3        29.83R
MARSHFIELD     CLEAR     69  65  86 NW6       29.82S
STEVENS POINT  CLEAR     72  68  87 W6        29.82R
WAUPACA        PTCLDY    74  72  92 W5        29.79R
WAUTOMA        PTCLDY    73  71  93 W6        29.81R
WISC RAPIDS    CLEAR     72  67  84 W7        29.83R
CAMP DOUGLAS   CLEAR     70  70 100 W5        29.82R
$$

WIZ011>013-019>022-031-037>040-048>050-230600-
NORTHEAST WISCONSIN

CITY           SKY/WX    TMP DP  RH WIND       PRES   REMARKS
ANTIGO         PTCLDY    64  64  99 CALM      29.83R
SHAWANO        CLOUDY    71  70  94 E5        29.79R
OCONTO         CLOUDY    66  64  96 CALM      29.79F
STURGEON BAY   LGT RAIN  68  66  93 N5        29.83R
GREEN BAY      TSTM      69  69 100 NE7       29.79S FOG
MANITOWOC      CLOUDY    72  63  73 N3        29.81R
APPLETON       CLOUDY    70  68  94 SW5       29.78S
CLINTONVILLE   CLOUDY    73  68  83 CALM      29.79R
OSHKOSH        LGT RAIN  74  70  87 NW6       29.79R
$$

WIZ032>034-041-042-053>061-230600-
SOUTHWEST WISCONSIN

CITY           SKY/WX    TMP DP  RH WIND       PRES   REMARKS
LA CROSSE      CLOUDY    71  68  90 CALM      29.83S
SPARTA         PTCLDY    64  64  98 CALM      29.85R
VIROQUA        CLOUDY    68  68 100 W5        29.85S
BOSCOBEL       CLOUDY    74  72  93 S3        29.81F
PRAIRIE DU CHI PTCLDY    73  71  94 CALM      29.82S
PLATTEVILLE    CLOUDY    74  74 100 W3        29.83F
$$

WIZ056-057-062-063-064-067-068-230600-
SOUTH CENTRAL WISCONSIN

CITY           SKY/WX    TMP DP  RH WIND       PRES   REMARKS
REEDSBURG      MOCLDY    71  71 100 CALM      29.82F
BARABOO/DELLS  MOCLDY    72  69  92 CALM      29.82S
LONE ROCK      PTCLDY    71  69  93 SW5       29.81S
MINERAL POINT  PTCLDY    73  73 100 CALM      29.83F
MADISON        CLEAR     69  68  96 W3        29.81R FOG
MIDDLETON      CLEAR     69  69 100 CALM      29.83S
WATERTOWN      CLEAR     68  68 100 CALM      29.80F
MONROE         PTCLDY    73  70  88 SW6       29.81F
JANESVILLE     PTCLDY    72  72 100 CALM      29.80F
$$

WIZ051-052-058>065-066-070>072-230600-
SOUTHEAST WISCONSIN

CITY           SKY/WX    TMP DP  RH WIND       PRES   REMARKS
MILWAUKEE      PTCLDY    72  69  90 SW5       29.80F
WAUKESHA       PTCLDY    68  68 100 CALM      29.82F
MILWAUKEE/TIMM CLEAR     70  64  83 CALM      29.81S
RACINE         PTCLDY    70  70 100 S3        29.81F FOG
KENOSHA        PTCLDY    72  70  93 SW5       29.81F
FOND DU LAC    PTCLDY    74  68  81 SW6       29.79S
SHEBOYGAN      PTCLDY    68  67  96 CALM      29.79R
WEST BEND      CLEAR     68  68 100 CALM      29.81S
JUNEAU         PTCLDY    69  67  96 CALM      29.82S
$$

LSZ147-162-230600-
LAKE SUPERIOR

STATION/POSITION TIME  TEMP    WIND        PRES    WAVE
                       AIR SEA DIR/SP/G            HT/PER
                 (UTC) (F)     (DEG/KT/KT) (MB)    (FT/S)
W MID LAKE BUOY  0450   50 48   20/  4/  6 1010.1R   2/ 5
DEVILS ISLAND    0400   54      70/ 13/ 14 1010.7R
PORT WING        0240   57      40/  6/ 17 1010.2
SAXON HARBOR     0430   58     200/  2/  6 1009.1F
$$

LMZ867-665-643>646-230600-
LAKE MICHIGAN

STATION/POSITION TIME  TEMP    WIND        PRES    WAVE
                       AIR SEA DIR/SP/G            HT/PER
                 (UTC) (F)     (DEG/KT/KT) (MB)    (FT/S)
CHAMBERS ISLAND  0440   71     170/  6/ 12 1008.1F
S GREEN BAY BUOY 0500   66 73  170/ 10/ 10 1008.8
N MID LAKE BUOY  0450   69 69  180/  8/ 10 1008.3F   0
NORTHPORT PIER   0440   68     160/  8/ 11 1008.5F
KEWAUNEE LAKESHO 0448   66     270/  7/ 11 1009.4R
SHEBOYGAN LAKESH 0500   70     200/  5/  6 1008.5R
PORT WASHINGTON  0430   70      CALM  /  4 1009.8F
ATWATER BUOY     0309   70 69  180/  6/  8 1009.6F
MILWAUKEE LAKESH 0450   71     210/  2/  3   N/A
S MID LAKE BUOY  0450   70 70   60/  2/  2 1009.0F   0
KENOSHA   LAKESH 0500   72     210/  5/  6 1008.8
$$

TC  - TEMPERATURE IN CELSIUS
VSB - VISIBILITY IN STATUTE MILES
WCI - WIND CHILL INDEX
HX  - HEAT INDEX




USA.gov is the U.S. government's official web portal to all federal, state and local government web resources and services.